Regional Weather Roundup
Issued by NWS Green Bay, WI

Home | Current Version | Previous Version | Text Only | Print | Product List | Glossary On
Versions: 1 2 3 4 5 6 7 8 9 10 11 12 13 14 15 16 17 18 19 20 21 22 23 24 25 26 27 28 29 30 31 32 33 34 35 36 37 38 39 40 41 42 43 44 45 46 47 48 49 50
000
ASUS43 KGRB 282300
RWRGRB

NORTH-CENTRAL AND NORTHEAST WISCONSIN REGIONAL WEATHER ROUNDUP
NATIONAL WEATHER SERVICE GREEN BAY WI
600 PM CDT SAT MAY 28 2016

WIZ005-009-010>012-018-019-290000-
NORTH CENTRAL WISCONSIN

CITY           SKY/WX    TMP DP  RH WIND       PRES   REMARKS
IRONWOOD       PTSUNNY   64  64 100 W12       29.77R
MANITOWISH WTR NOT AVBL
ARBOR VITAE    NOT AVBL
EAGLE RIVER    NOT AVBL
LAND O LAKES   NOT AVBL
RHINELANDER    MOSUNNY   74  63  68 W12G18    29.81S
PHILLIPS       PTSUNNY   69  66  92 SW3       29.79S
ANTIGO         NOT AVBL
TOMAHAWK       NOT AVBL
MERRILL        LGT RAIN  70  66  85 SW6       29.81R
$$

WIZ013-073-290000-
NORTHEAST WISCONSIN

CITY           SKY/WX    TMP DP  RH WIND       PRES   REMARKS
IRON MOUNTAIN  MOSUNNY   79  58  48 S17G26    29.78S
MARINETTE      PTSUNNY   74  65  73 S9G17     29.82R
$$

WIZ017-030-035>037-045-290000-
CENTRAL WISCONSIN

CITY           SKY/WX    TMP DP  RH WIND       PRES   REMARKS
MEDFORD        NOT AVBL
WAUSAU         SUNNY     77  59  53 S13G20    29.78S
MOSINEE        PTSUNNY   75  61  60 S10       29.80
MARSHFIELD     MOSUNNY   76  60  57 S13       29.79R
WISC RAPIDS    CLOUDY    77  59  53 SW6       29.80S
STEVENS POINT  NOT AVBL
WAUPACA        NOT AVBL
SHAWANO        NOT AVBL
CLINTONVILLE   NOT AVBL
WAUTOMA        MOSUNNY   80  62  54 S9G16     29.80R
$$

WIZ038-039-048-051-290000-
FOX VALLEY

CITY           SKY/WX    TMP DP  RH WIND       PRES   REMARKS
NWS GREEN BAY  MOSUNNY   81  64  56 S14       29.80S
APPLETON       PTSUNNY   81  59  47 S20       29.79F
OSHKOSH        SUNNY     78  63  59 S15       29.81S
FOND DU LAC    MOSUNNY   81  64  56 S12G18    29.82R
$$

WIZ022-050-052-290000-
EAST CENTRAL WISCONSIN

CITY           SKY/WX    TMP DP  RH WIND       PRES   REMARKS
EPHRAIM        NOT AVBL
STURGEON BAY   NOT AVBL
MANITOWOC      NOT AVBL
SHEBOYGAN      SUNNY     74  62  66 S20G32    29.85R
$$

LMZ563-521-522-541>543-290000-
LAKESHORE

STATION/POSITION TIME  TEMP    WIND        PRES    VSBY  WAVE
                       AIR SEA DIR/SP/G                  HT/PER
                 (UTC) (F)     (DEG/KT/KT) (MB)    (MI)  (FT/S)
SHEBOYGAN LKSHOR 2200   59     180/ 19/ 20 1011.0F
KEWAUNEE LKSHORE 2200          180/ 13/ 15   N/A
ALGOMA MARINA    2217          220/ 13/ 16   N/A
NORTHPORT PIER   2200   64     160/  9/ 14 1010.5S
N MID LAKE BUOY  2150   54 46  190/ 16/ 17 1010.7S         4/ 5
CHAMBERS ISLAND  2240   71     150/  8/ 17 1009.5F
MENOMINEE LKSHOR 2200          140/ 14/ 17   N/A
$$




USA.gov is the U.S. government's official web portal to all federal, state and local government web resources and services.